Regional Weather Roundup
Issued by NWS

Home | Current Version | Previous Version | Graphics & Text | Print | Product List | Glossary On
Versions: 1 2 3 4 5 6 7 8 9 10 11 12 13 14 15 16 17 18 19 20 21 22 23 24 25 26 27 28 29 30 31 32 33 34 35 36 37 38 39 40 41 42 43 44 45 46 47 48 49 50
000
ASUS43 KMKX 301711
RWRWI

WISCONSIN REGIONAL WEATHER ROUNDUP
NATIONAL WEATHER SERVICE MILWAUKEE/SULLIVAN WI
1200 PM CDT TUE JUN 30 2015

NOTE: "FAIR" INDICATES FEW OR NO CLOUDS BELOW 12,000 FEET WITH NO
SIGNIFICANT WEATHER AND/OR OBSTRUCTIONS TO VISIBILITY.

WIZ001-002-006>008-014>016-023>028-301800-
NORTHWEST WISCONSIN

CITY           SKY/WX    TMP DP  RH WIND       PRES   REMARKS
SUPERIOR ARPT  CLOUDY    59  49  67 NE8       30.00R
ASHLAND        CLOUDY    57  49  74 NE9       30.00R
HAYWARD        CLOUDY    60  51  72 NE10      29.98S
SIREN          CLOUDY    64  53  68 NE8       29.97S
CUMBERLAND     CLOUDY    64  54  68 N9        29.96F
RICE LAKE      CLOUDY    64  54  68 N7        29.97S
CHETEK         PTSUNNY   66  56  70 N8        29.95S
LADYSMITH      PTSUNNY   64  53  68 NW13      29.97R
EAU CLAIRE     PTSUNNY   69  56  62 N9        29.92S
MENOMONIE      PTSUNNY   69  58  66 N12       29.93F
NEW RICHMOND   MOSUNNY   69  57  65 NE6       29.95S
OSCEOLA        PTSUNNY   70  58  65 N8        29.97S
$$

WIZ003>005-009-010-017-018-301800-
NORTH CENTRAL WISCONSIN

CITY           SKY/WX    TMP DP  RH WIND       PRES   REMARKS
MANITOWISH WTR CLOUDY    54  50  87 N9G16     29.97R
ARBOR VITAE    CLOUDY    57  51  80 N12       29.95R
WOODRUFF       CLOUDY    57  51  80 N12       29.95R
RHINELANDER    CLOUDY    59  51  75 N10       29.94R
EAGLE RIVER    CLOUDY    55  50  85 N10       29.94R
LAND O LAKES   CLOUDY    53  49  86 NW8G16    29.96S
PHILLIPS       CLOUDY    58  51  76 N8        29.95S
TOMAHAWK       CLOUDY    59  51  73 N9G16     29.94R
MEDFORD        CLOUDY    63  53  70 N14       29.92S
MERRILL        CLOUDY    62  53  73 N13       29.93R
$$

WIZ029-030-035-036-043>047-301800-
CENTRAL WISCONSIN

CITY           SKY/WX    TMP DP  RH WIND       PRES   REMARKS
WAUSAU         PTSUNNY   69  53  56 N8        29.88R
MOSINEE        NOT AVBL
MARSHFIELD     PTSUNNY   69  54  58 N12       29.90S
STEVENS POINT  PTSUNNY   67  54  62 NW12      29.89R
WAUPACA        CLOUDY    73  57  58 NW12      29.86R
WAUTOMA        PTSUNNY   71  56  59 NW8       29.87S
WISC RAPIDS    MOSUNNY   72  55  55 N9G20     29.90R
CAMP DOUGLAS   PTSUNNY   70  70 100 N8        29.88F
$$

WIZ011>013-019>022-031-037>040-048>050-301800-
NORTHEAST WISCONSIN

CITY           SKY/WX    TMP DP  RH WIND       PRES   REMARKS
ANTIGO         CLOUDY    61  54  77 N15       29.91R
SHAWANO        CLOUDY    67  56  66 N10       29.87R
OCONTO         CLOUDY    63  55  76 N7        29.85R
STURGEON BAY   CLOUDY    57  52  82 N13       29.87R
GREEN BAY      CLOUDY    68  57  68 N10G18    29.85R
MANITOWOC      CLOUDY    63  59  87 MISG      29.84R
APPLETON       PTSUNNY   66  55  68 N10G17    29.86R
CLINTONVILLE   CLOUDY    68  54  60 N8        29.86S
OSHKOSH        CLOUDY    69  58  67 NW10      29.84S
$$

WIZ032>034-041-042-053>061-301800-
SOUTHWEST WISCONSIN

CITY           SKY/WX    TMP DP  RH WIND       PRES   REMARKS
LA CROSSE      CLOUDY    68  60  75 W9        29.91S
SPARTA         CLOUDY    69  56  65 N8        29.91R
VIROQUA        CLOUDY    66  60  79 N8        29.92R
BOSCOBEL       CLOUDY    70  60  70 VRB5      29.90R
PRAIRIE DU CHI MOSUNNY   71  60  67 NW10      29.88F
PLATTEVILLE    MOSUNNY   70  63  80 N10       29.88S
$$

WIZ056-057-062-063-064-067-068-301800-
SOUTH CENTRAL WISCONSIN

CITY           SKY/WX    TMP DP  RH WIND       PRES   REMARKS
REEDSBURG      CLOUDY    69  60  74 NW8       29.87F
BARABOO/DELLS  PTSUNNY   70  59  67 NW7       29.88S
LONE ROCK      PTSUNNY   70  59  68 N7G16     29.88F
MINERAL POINT  CLOUDY    68  61  77 N7        29.89S
MADISON        PTSUNNY   71  59  65 N10       29.86S
MIDDLETON      CLOUDY    70  60  70 N7        29.87F
WATERTOWN      PTSUNNY   68  63  84 NW8G16    29.85R
MONROE         CLOUDY    66  61  82 N9        29.87S
JANESVILLE     PTSUNNY   70  63  78 NW14      29.85S
$$

WIZ051-052-058>065-066-070>072-301800-
SOUTHEAST WISCONSIN

CITY           SKY/WX    TMP DP  RH WIND       PRES   REMARKS
MILWAUKEE      CLOUDY    71  58  63 NW13G22   29.81S
WAUKESHA       CLOUDY    66  59  77 NW13G18   29.85R
MILWAUKEE/TIMM PTSUNNY   72  57  60 NW14      29.82S
RACINE         CLOUDY    71  59  65 NW12      29.83R
BURLINGTON     MOSUNNY   69  59  70 NW13G18   29.84R
KENOSHA        CLOUDY    71  60  68 NW12      29.83R
FOND DU LAC    CLOUDY    69  58  67 N12       29.85R
SHEBOYGAN      CLOUDY    69  59  70 N10       29.82R
WEST BEND      CLOUDY    70  57  64 NW14      29.83R
JUNEAU         CLOUDY    67  60  77 NW8       29.86S
$$

LSZ147-162-301800-
LAKE SUPERIOR

STATION/POSITION TIME  TEMP    WIND        PRES    WAVE
                       AIR SEA DIR/SP/G            HT/PER
                 (UTC) (F)     (DEG/KT/KT) (MB)    (FT/S)
W MID LAKE BUOY  1650   43 38   50/  8/ 10 1016.4R   1
DEVILS ISLAND    1700   52      90/ 13/ 14 1016.5R
SAXON HARBOR     1640   54      40/ 10/ 12 1015.6R
$$

LMZ867-665-643>646-301800-
LAKE MICHIGAN

STATION/POSITION TIME  TEMP    WIND        PRES    WAVE
                       AIR SEA DIR/SP/G            HT/PER
                 (UTC) (F)     (DEG/KT/KT) (MB)    (FT/S)
CHAMBERS ISLAND  1600   58     340/ 13/ 15 1010.8S
N MID LAKE BUOY  1650   51 47  330/ 14/ 16 1010.2R   2/ 4
NORTHPORT PIER   1600   56     340/ 18/ 21 1010.5S
SISTER BAY       1614   56     360/ 16/ 22   N/A
ALGOMA LAKESHORE 1610           20/ 14/ 21   N/A
KEWAUNEE LAKESHO 1600   61      10/  8/ 14 1009.5R
SHEBOYGAN LAKESH 1700   60     360/ 11/ 11 1010.2R
PORT WASHINGTON  1640   64      30/  8/ 12 1010.2R
ATWATER BUOY     1700   66     310/ 10/ 12 1010.9R
MILWAUKEE LAKESH 1600   69     320/ 10/ 14   N/A
KENOSHA   LAKESH 1700   69     320/ 10/ 18 1009.5S
$$

TC  - TEMPERATURE IN CELSIUS
VSB - VISIBILITY IN STATUTE MILES
WCI - WIND CHILL INDEX
HX  - HEAT INDEX




USA.gov is the U.S. government's official web portal to all federal, state and local government web resources and services.